星链-5052 (STARLINK-5052 )

导读 | 豆包AI

STARLINK-5052是美国SpaceX公司星链计划中的一颗卫星,于2022年9月24日发射升空,属于星链星座组网卫星,旨在为全球提供低延迟、高速率的宽带互联网服务,依托近地轨道部署,是星链星座构建全球卫星互联网覆盖进程中的组成部分。

基本信息
目录编号:
53893
目录名称:
STARLINK-5052
国际标识:
2022-119H
轨道中心:
EARTH
卫星名称:
星链-5052
卫星全名:
星链-5052 (STARLINK-5052 )
卫星状态:
在轨 (已飞行1314 天)
发射日期:
2022-09-24 UTC
国别 :
美国 (US)
星等 :
--
轨道信息
数据来源 国际轨道数据 AOE轨道数据
星历时间 2026-04-30T13:14:53+0800
11小时前
查看轨道信息
2026-04-27T01:00:00+0800
3天前
查看轨道信息
半长轴 6917.856km 6917.867km
偏心率 0.0001781 0.0000985
轨道倾角 53.218° 53.217°
近地点辐角 66.246° 65.238°
升交点赤经 92.802° 108.559°
平近点角 293.872° 296.875°
近地点 538.486km 539.048km
远地点 540.952km 540.412km
周期 95.437分钟 95.437分钟
每日圈数 15.088481 15.088446
详细信息
固有亮度:
5
最大亮度:
2.5
卫星平台:
Starlink v1.5
覆盖范围:
全球
运营商:
太空探索技术公司
运营商所在国:
美国
制造商(研发单位):
太空探索技术公司
制造商所在国:
美国
使用方式:
暂无
卫星简介
星链(Starlink)计划是由太空探索技术公司(SpaceX)提出的一个巨型低轨卫星互联网星座项目,计划在2019年至2024年间在太空搭建由约1.2万颗卫星组成的“星链”网络,其中1584颗将部署在地球上空550千米处的近地轨道,并从2020年开始工作。该卫星仍在工作。
2D轨道图
3D轨道图
轨道高度分析图
轨道倾角分析图
轨道综合分析图
查看轨道综合分析图